Location: Poprad
(49.0500°N, 20.3000°E)
Time: 11:29:58
(UTC+01:00)

ISS - Pass Details

Date: 25 January 2021
Orbit: 417 x 422 km, 51.6° (Epoch: 07 March)

Event Time Altitude Azimuth Distance (km) Brightness Sun altitude
Rises 19:34:50 0° 282° (WNW) 2,375 1.2 -30.9°
Reaches altitude 10° 19:36:58 10° 287° (WNW) 1,510 -0.1 -31.3°
Enters shadow 19:37:18 12° 288° (WNW) 1,376 -0.4 -31.3°
